"TOA5","MOW","CPU:UNC_MeetingWaters","DataHourly"
"TIMESTAMP","SondeTempC","SpCond","DOSat","DOmg","pH","Turb","BattVolt_Min"
"TS","","","","","","",""
"","Smp","Smp","Smp","Smp","Smp","Smp","Min"
"2006-02-01 00:00:00",4.82999992371,0.00400000018999,116.800003052,14.9799995422,7.19000005722,51.7999992371,12.470000267
"2006-02-01 01:00:00",4.17999982834,0.00400000018999,116.699996948,15.2299995422,7.40999984741,54.0,12.4600000381
"2006-02-01 02:00:00",3.07999992371,0.00400000018999,117.300003052,15.75,7.59000015259,71.9000015259,12.4399995804
"2006-02-01 03:00:00",3.11999988556,0.00400000018999,116.900001526,15.6800003052,7.71000003815,76.9000015259,12.4200000763
"2006-02-01 04:00:00",3.02999997139,0.00400000018999,116.800003052,15.720000267,7.75,72.5999984741,12.4099998474
"2006-02-01 05:00:00",2.76999998093,0.00400000018999,116.900001526,15.8400001526,7.73999977112,69.5999984741,12.3900003433
"2006-02-01 06:00:00",2.26999998093,0.00400000018999,116.400001526,15.9899997711,7.71000003815,66.9000015259,12.3800001144
"2006-02-01 07:00:00",1.24000000954,0.00400000018999,117.099998474,16.5400009155,7.67999982834,68.4000015259,12.3599996567
"2006-02-01 08:00:00",1.39999997616,0.00400000018999,116.800003052,16.4200000763,7.65999984741,57.0,12.3500003815
"2006-02-01 09:00:00",1.25,0.00400000018999,117.400001526,16.5699996948,7.63000011444,42.0999984741,12.3400001526
"2006-02-01 10:00:00",3.15000009537,0.00400000018999,117.900001526,15.8100004196,7.59000015259,30.1000003815,12.3699998856
"2006-02-01 11:00:00",6.57999992371,0.00400000018999,112.400001526,13.7899999619,7.88999986649,24.3999996185,12.8599996567
"2006-02-01 12:00:00",7.71000003815,0.00400000018999,114.199996948,13.6300001144,8.10000038147,49.2999992371,13.1899995804
"2006-02-01 13:00:00",7.92999982834,0.00400000018999,114.300003052,13.5699996948,8.22999954224,25.3999996185,13.0600004196
"2006-02-01 14:00:00",12.279999733,0.00200000009499,112.599998474,12.0600004196,7.80000019073,19.2999992371,13.4099998474
"2006-02-01 15:00:00",9.89999961853,0.0010000000475,115.199996948,13.029999733,6.26000022888,16.1000003815,12.9899997711
"2006-02-01 16:00:00",10.5600004196,0.0010000000475,112.599998474,12.5399999619,6.92999982834,18.3999996185,12.9099998474
"2006-02-01 17:00:00",9.56999969482,0.0010000000475,114.0,13.0,6.59000015259,17.2000007629,12.8100004196
"2006-02-01 18:00:00",8.84000015259,0.0010000000475,115.099998474,13.3599996567,6.92999982834,15.3000001907,12.6999998093
"2006-02-01 19:00:00",7.92000007629,0.0010000000475,115.300003052,13.6899995804,7.09000015259,15.1000003815,12.6499996185
"2006-02-01 20:00:00",6.59999990463,0.0010000000475,115.699996948,14.1899995804,7.15999984741,15.8999996185,12.6199998856
"2006-02-01 21:00:00",5.51999998093,0.0010000000475,116.599998474,14.6999998093,7.21999979019,16.5,12.6000003815
"2006-02-01 22:00:00",5.30000019073,0.0010000000475,116.599998474,14.779999733,7.36000013351,17.0,12.5799999237
"2006-02-01 23:00:00",5.07999992371,0.00200000009499,116.699996948,14.8699998856,7.61999988556,17.1000003815,12.5600004196
"2006-02-02 00:00:00",4.36000013351,0.00200000009499,116.400001526,15.1099996567,7.75,17.6000003815,12.5500001907
"2006-02-02 01:00:00",2.95000004768,0.00200000009499,117.0,15.779999733,7.84000015259,17.5,12.5399999619
"2006-02-02 02:00:00",3.36999988556,0.00200000009499,117.300003052,15.6400003433,7.92999982834,17.2000007629,12.5200004578
"2006-02-02 03:00:00",2.77999997139,0.00200000009499,116.699996948,15.8000001907,7.88000011444,16.2999992371,12.5100002289
"2006-02-02 04:00:00",3.01999998093,0.00200000009499,116.800003052,15.7100000381,7.84999990463,15.6999998093,12.4899997711
"2006-02-02 05:00:00",2.45000004768,0.00200000009499,116.900001526,15.970000267,7.82999992371,15.0,12.4799995422
"2006-02-02 06:00:00",2.07999992371,0.00200000009499,117.199996948,16.1800003052,7.80999994278,14.3000001907,12.4600000381
"2006-02-02 07:00:00",1.88999998569,0.00200000009499,116.900001526,16.2199993134,7.78000020981,14.6999998093,12.4399995804
"2006-02-02 08:00:00",0.280000001192,0.00200000009499,117.199996948,17.0,7.76999998093,14.1000003815,12.4200000763
"2006-02-02 09:00:00",1.47000002861,0.00200000009499,117.800003052,16.5300006866,7.73999977112,13.8000001907,12.4399995804
"2006-02-02 10:00:00",3.20000004768,0.00200000009499,118.199996948,15.8199996948,7.71999979019,13.6000003815,12.4600000381
"2006-02-02 11:00:00",5.61000013351,0.00200000009499,117.800003052,14.8100004196,7.67000007629,13.6000003815,12.8699998856
"2006-02-02 12:00:00",7.48000001907,0.00200000009499,116.0,13.9099998474,7.57000017166,13.8000001907,12.8299999237
"2006-02-02 13:00:00",10.3999996185,0.0010000000475,114.900001526,12.8500003815,7.34000015259,13.8999996185,12.9600000381
"2006-02-02 14:00:00",14.1999998093,0.0,111.599998474,11.4600000381,5.59000015259,12.8000001907,13.2600002289
"2006-02-02 15:00:00",11.5200004578,0.0,114.300003052,12.4499998093,5.57999992371,12.6999998093,12.8400001526
"2006-02-02 16:00:00",11.6999998093,0.0,114.300003052,12.4099998474,5.48999977112,12.5,12.8500003815
"2006-02-02 17:00:00",12.1499996185,0.0,114.099998474,12.25,5.25,12.5,12.8100004196
"2006-02-02 18:00:00",11.4799995422,0.0,114.300003052,12.4600000381,5.42000007629,12.3999996185,12.6800003052
"2006-02-02 19:00:00",10.8699998856,0.0,114.099998474,12.6300001144,5.78000020981,12.8000001907,12.6300001144
"2006-02-02 20:00:00",10.3999996185,0.0,114.199996948,12.7700004578,6.05999994278,12.8999996185,12.6099996567
"2006-02-02 21:00:00",10.2700004578,0.0,114.0,12.7899999619,6.15999984741,14.1000003815,12.5900001526
"2006-02-02 22:00:00",10.3100004196,0.0,113.800003052,12.75,6.23999977112,12.8999996185,12.5699996948
"2006-02-02 23:00:00",10.3400001526,0.0,113.599998474,12.720000267,6.28999996185,12.6999998093,12.5500001907
"2006-02-03 00:00:00",10.9399995804,0.0,113.400001526,12.5200004578,6.48000001907,14.3999996185,12.5399999619
"2006-02-03 01:00:00",11.25,0.266999989748,103.800003052,11.3699998856,7.90999984741,47.7000007629,12.5200004578
"2006-02-03 02:00:00",12.2399997711,0.0130000002682,99.8000030518,10.6999998093,7.96999979019,170.399993896,12.5200004578
"2006-02-03 03:00:00",12.2100000381,0.00899999961257,98.1999969482,10.529999733,7.90999984741,81.0999984741,12.5
"2006-02-03 04:00:00",12.4799995422,0.206000000238,100.300003052,10.6899995804,7.86000013351,161.300003052,12.4899997711
"2006-02-03 05:00:00",13.1400003433,0.149000003934,100.099998474,10.5100002289,7.88999986649,257.5,12.4799995422
"2006-02-03 06:00:00",12.8900003433,0.0179999992251,97.6999969482,10.3199996948,7.84000015259,122.599998474,12.470000267
"2006-02-03 07:00:00",12.75,0.00800000037998,97.0,10.279999733,7.80999994278,91.0,12.4499998093
"2006-02-03 08:00:00",12.3800001144,0.00700000021607,96.0,10.2600002289,7.96000003815,71.6999969482,12.4499998093
"2006-02-03 09:00:00",11.9200000763,0.00700000021607,109.099998474,11.779999733,7.88000011444,62.7999992371,12.4499998093
"2006-02-03 10:00:00",12.4300003052,0.00700000021607,112.900001526,12.0500001907,7.96999979019,57.0999984741,12.4899997711
"2006-02-03 11:00:00",13.4399995804,0.00700000021607,113.199996948,11.8100004196,7.88000011444,50.2000007629,12.779999733
"2006-02-03 12:00:00",14.2399997711,0.00700000021607,112.199996948,11.5,7.71000003815,39.2000007629,12.8800001144
"2006-02-03 13:00:00",16.0699996948,0.00600000005215,111.699996948,11.0100002289,7.36999988556,32.2000007629,13.0
"2006-02-03 14:00:00",17.8899993896,0.00499999988824,110.300003052,10.470000267,5.73000001907,27.3999996185,13.0600004196
"2006-02-03 15:00:00",16.3400001526,0.00400000018999,111.900001526,10.970000267,5.73999977112,24.0,13.1099996567
"2006-02-03 16:00:00",16.6499996185,0.00300000002608,111.5,10.8599996567,5.84000015259,21.5,12.9099998474
"2006-02-03 17:00:00",16.1200008392,0.00300000002608,111.900001526,11.0100002289,5.96999979019,30.3999996185,12.8299999237
"2006-02-03 18:00:00",14.7100000381,0.00300000002608,112.300003052,11.3999996185,6.13999986649,52.7999992371,12.7100000381
"2006-02-03 19:00:00",13.3599996567,0.00300000002608,112.699996948,11.779999733,6.19999980927,41.0,12.6700000763
"2006-02-03 20:00:00",12.3900003433,0.00300000002608,113.099998474,12.0799999237,6.25,37.4000015259,12.6499996185
"2006-02-03 21:00:00",11.6199998856,0.00300000002608,113.0,12.2899999619,6.48999977112,122.400001526,12.6300001144
"2006-02-03 22:00:00",10.9300003052,0.00300000002608,113.5,12.529999733,6.65999984741,149.399993896,12.6099996567
"2006-02-03 23:00:00",10.1300001144,0.00300000002608,113.699996948,12.7899999619,6.86000013351,146.600006104,12.5900001526
"2006-02-04 00:00:00",9.78999996185,0.00300000002608,113.800003052,12.9099998474,7.07000017166,165.399993896,12.5799999237
"2006-02-04 01:00:00",9.59000015259,0.00300000002608,113.900001526,12.9899997711,7.17999982834,138.5,12.5699996948
"2006-02-04 02:00:00",9.15999984741,0.00300000002608,113.900001526,13.1099996567,7.26000022888,146.899993896,12.5600004196
"2006-02-04 03:00:00",9.75,0.00300000002608,113.699996948,12.9099998474,7.36000013351,87.5,12.5399999619
"2006-02-04 04:00:00",10.0,0.00300000002608,113.599998474,12.8299999237,7.32000017166,48.4000015259,12.5399999619
"2006-02-04 05:00:00",10.3299999237,0.00300000002608,113.400001526,12.6999998093,7.23000001907,31.2000007629,12.529999733
"2006-02-04 06:00:00",10.8699998856,0.00300000002608,113.099998474,12.5,7.11999988556,24.2999992371,12.5200004578
"2006-02-04 07:00:00",11.0900001526,0.00300000002608,112.800003052,12.4200000763,7.01999998093,18.7999992371,12.5100002289
"2006-02-04 08:00:00",11.1700000763,0.00300000002608,112.699996948,12.3800001144,6.92000007629,17.7999992371,12.5
"2006-02-04 09:00:00",11.6999998093,0.00300000002608,112.400001526,12.1999998093,6.88000011444,18.2000007629,12.4899997711
"2006-02-04 10:00:00",12.4300003052,0.00300000002608,105.300003052,11.2399997711,6.92999982834,43.0999984741,12.4899997711
"2006-02-04 11:00:00",13.5100002289,0.181999996305,102.300003052,10.6499996185,8.0,429.100006104,12.4899997711
"2006-02-04 12:00:00",14.3299999237,0.0520000010729,109.300003052,11.1800003052,8.21000003815,997.0,12.5
"2006-02-04 13:00:00",14.279999733,0.0740000009537,107.5,11.0100002289,8.07999992371,693.5,12.5100002289
"2006-02-04 14:00:00",14.279999733,0.101000003517,105.5,10.8100004196,8.01000022888,475.799987793,12.5600004196
"2006-02-04 15:00:00",14.2600002289,0.120999999344,104.099998474,10.6599998474,7.88999986649,477.5,12.5600004196
"2006-02-04 16:00:00",14.4799995422,0.135000005364,104.300003052,10.6300001144,7.82999992371,325.700012207,12.6300001144
"2006-02-04 17:00:00",15.0,0.103000000119,104.699996948,10.5500001907,7.88999986649,292.799987793,12.529999733
"2006-02-04 18:00:00",15.3599996567,0.082999996841,105.199996948,10.5200004578,7.94000005722,478.899993896,12.5
"2006-02-04 19:00:00",14.6499996185,0.0960000008345,103.0,10.4600000381,7.80000019073,376.700012207,12.470000267
"2006-02-04 20:00:00",13.970000267,0.115999996662,102.599998474,10.5799999237,7.71999979019,276.600006104,12.4600000381
"2006-02-04 21:00:00",13.3299999237,0.12800000608,102.699996948,10.7399997711,7.67999982834,223.899993896,12.4499998093
"2006-02-04 22:00:00",12.7100000381,0.0920000001788,102.699996948,10.8900003433,7.63000011444,176.100006104,12.4399995804
"2006-02-04 23:00:00",12.1499996185,0.0930000022054,103.0,11.0600004196,7.63999986649,147.5,12.4300003052
"2006-02-05 00:00:00",11.6599998474,0.0450000017881,103.099998474,11.1999998093,7.67999982834,133.800003052,12.4200000763
"2006-02-05 01:00:00",11.3100004196,0.00999999977648,102.900001526,11.2600002289,7.71999979019,119.699996948,12.4099998474
"2006-02-05 02:00:00",10.8500003815,0.00800000037998,101.800003052,11.2700004578,7.73000001907,95.0,12.3999996185
"2006-02-05 03:00:00",10.2899999619,0.00700000021607,101.900001526,11.4200000763,7.76999998093,74.0999984741,12.3900003433
"2006-02-05 04:00:00",9.64999961853,0.00700000021607,102.5,11.6599998474,7.82999992371,63.7999992371,12.3800001144
"2006-02-05 05:00:00",8.89999961853,0.00600000005215,103.599998474,12.0,7.86999988556,54.7999992371,12.3699998856
"2006-02-05 06:00:00",8.01000022888,0.00600000005215,103.800003052,12.2899999619,7.90999984741,47.2000007629,12.3599996567
"2006-02-05 07:00:00",7.15999984741,0.00600000005215,105.199996948,12.7299995422,8.02999973297,42.0999984741,12.3599996567
"2006-02-05 08:00:00",5.65000009537,0.00600000005215,106.599998474,13.3900003433,8.27000045776,39.0999984741,12.3500003815
"2006-02-05 09:00:00",5.21999979019,0.00600000005215,108.599998474,13.7899999619,8.28999996185,35.7000007629,12.3599996567
"2006-02-05 10:00:00",4.86000013351,0.00600000005215,110.099998474,14.1099996567,8.30000019073,32.5,12.3699998856
"2006-02-05 11:00:00",7.32000017166,0.00600000005215,111.0,13.3800001144,8.25,32.7999992371,12.9600000381
"2006-02-05 12:00:00",7.05000019073,0.00499999988824,115.5,14.0,8.22000026703,30.6000003815,13.3400001526
"2006-02-05 13:00:00",5.94999980927,0.00499999988824,114.199996948,14.2299995422,8.18000030518,28.7999992371,12.8999996185
"2006-02-05 14:00:00",7.05999994278,0.00499999988824,114.800003052,13.9200000763,7.78999996185,28.7000007629,13.5900001526
"2006-02-05 15:00:00",7.40999984741,0.00400000018999,116.800003052,14.0399999619,6.30999994278,28.5,13.0399999619
"2006-02-05 16:00:00",7.19000005722,0.00400000018999,114.300003052,13.8100004196,6.09999990463,31.2999992371,12.9399995804
"2006-02-05 17:00:00",7.28000020981,0.00300000002608,112.300003052,13.5399999619,5.5,35.7000007629,12.8699998856
"2006-02-05 18:00:00",7.07000017166,0.00200000009499,114.699996948,13.8999996185,5.78000020981,42.5999984741,12.720000267
"2006-02-05 19:00:00",6.53999996185,0.0010000000475,115.199996948,14.1499996185,6.59000015259,47.5,12.6599998474
"2006-02-05 20:00:00",5.96000003815,0.00200000009499,115.099998474,14.3400001526,6.82999992371,50.0,12.6300001144
"2006-02-05 21:00:00",4.30000019073,0.00200000009499,115.900001526,15.0699996948,7.05999994278,52.9000015259,12.6000003815
"2006-02-05 22:00:00",4.21000003815,0.00200000009499,116.5,15.1899995804,7.17000007629,51.2000007629,12.5799999237
"2006-02-05 23:00:00",3.02999997139,0.00200000009499,116.099998474,15.6199998856,7.44000005722,46.7000007629,12.5600004196
"2006-02-06 00:00:00",2.55999994278,0.00200000009499,116.900001526,15.9200000763,7.92999982834,40.0999984741,12.529999733
"2006-02-06 01:00:00",3.20000004768,0.00200000009499,116.300003052,15.5699996948,7.98999977112,33.4000015259,12.5200004578
"2006-02-06 02:00:00",2.68000006676,0.00200000009499,116.099998474,15.7600002289,7.94000005722,27.6000003815,12.4899997711
"2006-02-06 03:00:00",2.31999993324,0.00200000009499,116.300003052,15.9499998093,7.90999984741,23.1000003815,12.4799995422
"2006-02-06 04:00:00",2.56999993324,0.00200000009499,116.5,15.8599996567,7.88000011444,20.7999992371,12.4600000381
"2006-02-06 05:00:00",1.50999999046,0.00200000009499,116.699996948,16.3600006104,7.86999988556,17.8999996185,12.4499998093
"2006-02-06 06:00:00",1.75,0.00200000009499,117.199996948,16.3199996948,7.86999988556,17.3999996185,12.4200000763
"2006-02-06 07:00:00",0.129999995232,0.00200000009499,117.699996948,17.1599998474,7.86000013351,16.5,12.3999996185
"2006-02-06 08:00:00",0.10000000149,0.00200000009499,117.099998474,17.0799999237,7.86000013351,16.3999996185,12.3900003433
"2006-02-06 09:00:00",-0.980000019073,0.00200000009499,117.900001526,17.7299995422,7.84999990463,16.5,12.3699998856
"2006-02-06 10:00:00",1.12000000477,0.00200000009499,118.800003052,16.8400001526,7.82000017166,16.5,12.4300003052
"2006-02-06 11:00:00",4.48999977112,0.00200000009499,118.800003052,15.3699998856,7.76999998093,16.2000007629,13.1000003815
"2006-02-06 12:00:00",5.88000011444,0.0010000000475,116.900001526,14.5900001526,7.67999982834,16.0,13.279999733
"2006-02-06 13:00:00",8.35999965668,0.0010000000475,127.300003052,14.9399995804,7.76000022888,17.2000007629,13.6800003052
"2006-02-06 14:00:00",11.9099998474,0.0010000000475,113.400001526,12.2399997711,6.11999988556,17.1000003815,14.4899997711
"2006-02-06 15:00:00",9.60999965668,0.0010000000475,113.400001526,12.9200000763,5.84000015259,24.1000003815,14.470000267
"2006-02-06 16:00:00",8.92000007629,0.0,114.099998474,13.2100000381,5.71999979019,37.2000007629,13.0799999237
"2006-02-06 17:00:00",8.88000011444,0.0,114.5,13.2700004578,5.34999990463,29.2999992371,12.9600000381
"2006-02-06 18:00:00",8.40999984741,0.0,115.0,13.4799995422,5.73999977112,42.7999992371,12.7899999619
"2006-02-06 19:00:00",7.57000017166,0.0,115.099998474,13.779999733,6.51000022888,63.2999992371,12.7399997711
"2006-02-06 20:00:00",6.75,0.0,115.5,14.1099996567,6.76999998093,59.7999992371,12.7100000381
"2006-02-06 21:00:00",6.42000007629,0.0,115.800003052,14.2600002289,6.84999990463,55.2999992371,12.6899995804
"2006-02-06 22:00:00",6.05000019073,0.0,116.400001526,14.470000267,6.90000009537,41.4000015259,12.6599998474
"2006-02-06 23:00:00",6.21000003815,0.0,116.400001526,14.4200000763,6.88999986649,30.8999996185,12.6499996185
"2006-02-07 00:00:00",6.01000022888,0.0,116.599998474,14.5100002289,6.92000007629,22.7999992371,12.6400003433
"2006-02-07 01:00:00",6.48999977112,0.0,116.300003052,14.3000001907,6.88999986649,19.3999996185,12.6199998856
"2006-02-07 02:00:00",6.32999992371,0.0,116.099998474,14.3400001526,6.96000003815,21.6000003815,12.6099996567
"2006-02-07 03:00:00",6.09000015259,0.0,115.800003052,14.3900003433,6.94000005722,26.7999992371,12.6000003815
"2006-02-07 04:00:00",5.98000001907,0.0,116.099998474,14.4600000381,7.01000022888,30.7999992371,12.5900001526
"2006-02-07 05:00:00",6.17000007629,0.0,115.900001526,14.3699998856,7.07000017166,29.2000007629,12.5699996948
"2006-02-07 06:00:00",5.73999977112,0.0,115.0,14.4099998474,6.65000009537,22.0,12.5600004196
"2006-02-07 07:00:00",5.32999992371,0.0,114.800003052,14.529999733,6.46999979019,17.8999996185,12.5500001907
"2006-02-07 08:00:00",5.0,0.0,115.0,14.6899995804,6.61000013351,15.1000003815,12.529999733
"2006-02-07 09:00:00",4.61000013351,0.0,114.5,14.7700004578,6.67999982834,14.1999998093,12.5200004578
"2006-02-07 10:00:00",4.78999996185,0.0,115.300003052,14.8100004196,6.42000007629,13.8999996185,12.5699996948
"2006-02-07 11:00:00",6.92999982834,0.0,117.900001526,14.3299999237,5.94000005722,13.8000001907,13.029999733
"2006-02-07 12:00:00",8.23999977112,0.0,115.199996948,13.5699996948,5.84000015259,13.3000001907,13.4799995422
"2006-02-07 13:00:00",10.4499998093,0.0,114.599998474,12.8000001907,5.65999984741,13.3999996185,14.4799995422
"2006-02-07 14:00:00",14.1199998856,0.0,111.400001526,11.4499998093,5.01999998093,13.8000001907,14.4300003052
"2006-02-07 15:00:00",10.7600002289,0.0,112.5,12.4799995422,5.44000005722,13.6000003815,14.4300003052
"2006-02-07 16:00:00",10.4600000381,0.0,112.599998474,12.5799999237,5.23000001907,15.1000003815,13.1700000763
"2006-02-07 17:00:00",9.85000038147,0.0,113.699996948,12.8800001144,5.19000005722,14.8999996185,13.0
"2006-02-07 18:00:00",8.73999977112,0.0,113.599998474,13.220000267,6.01999998093,15.1000003815,12.8299999237
"2006-02-07 19:00:00",7.38000011444,0.0,114.699996948,13.7899999619,6.53999996185,25.5,12.7899999619
"2006-02-07 20:00:00",5.86000013351,0.0,114.900001526,14.3599996567,6.78000020981,41.2000007629,12.75
"2006-02-07 21:00:00",4.98999977112,0.0,115.900001526,14.8100004196,7.07000017166,51.5,12.7399997711
"2006-02-07 22:00:00",4.30000019073,0.0,115.699996948,15.0600004196,7.28000020981,61.9000015259,12.7100000381
"2006-02-07 23:00:00",3.1099998951,0.0010000000475,116.099998474,15.5799999237,7.30000019073,58.5999984741,12.6899995804
"2006-02-08 00:00:00",2.3900001049,0.0010000000475,117.0,16.0200004578,7.5,47.7000007629,12.6800003052
"2006-02-08 01:00:00",2.20000004768,0.0010000000475,116.400001526,16.0200004578,7.48000001907,34.0999984741,12.6599998474
"2006-02-08 02:00:00",1.47000002861,0.0010000000475,117.0,16.4200000763,7.63999986649,25.6000003815,12.6400003433
"2006-02-08 03:00:00",1.21000003815,0.0010000000475,117.5,16.6000003815,7.69000005722,21.2999992371,12.6199998856
"2006-02-08 04:00:00",2.47000002861,0.0010000000475,117.900001526,16.1000003815,7.42999982834,18.5,12.6199998856
"2006-02-08 05:00:00",1.51999998093,0.0010000000475,117.0,16.3999996185,7.59000015259,17.7000007629,12.6000003815
"2006-02-08 06:00:00",0.0399999991059,0.0010000000475,116.599998474,17.0300006866,7.69000005722,16.8999996185,12.5900001526
"2006-02-08 07:00:00",0.0299999993294,0.0010000000475,117.0,17.1000003815,7.75,16.2999992371,12.5799999237
"2006-02-08 08:00:00",0.52999997139,0.0010000000475,117.5,16.9300003052,7.75,15.3000001907,12.5699996948
"2006-02-08 09:00:00",0.00999999977648,0.0010000000475,118.0,17.2600002289,7.71999979019,14.6999998093,12.5900001526
"2006-02-08 10:00:00",1.29999995232,0.0010000000475,118.400001526,16.6900005341,7.67000007629,14.6000003815,12.6499996185
"2006-02-08 11:00:00",4.48000001907,0.0,120.699996948,15.6199998856,7.36999988556,14.1999998093,13.2600002289
"2006-02-08 12:00:00",5.63999986649,0.0,116.400001526,14.6199998856,5.57999992371,13.8999996185,13.7600002289
"2006-02-08 13:00:00",8.82999992371,0.0,115.400001526,13.3999996185,5.23999977112,13.6999998093,14.720000267
"2006-02-08 14:00:00",12.5399999619,0.0,111.900001526,11.9099998474,4.57000017166,13.3999996185,14.4899997711
"2006-02-08 15:00:00",9.92000007629,0.0,113.599998474,12.8500003815,4.80000019073,13.5,14.4899997711
"2006-02-08 16:00:00",9.40999984741,0.0,114.800003052,13.1499996185,4.94000005722,13.6999998093,13.1999998093
"2006-02-08 17:00:00",8.77000045776,0.0,114.300003052,13.2899999619,4.96999979019,13.8000001907,13.1599998474
"2006-02-08 18:00:00",8.14999961853,0.0,115.099998474,13.5799999237,5.26000022888,14.0,12.8800001144
"2006-02-08 19:00:00",7.05999994278,0.0,114.599998474,13.8900003433,5.82000017166,14.1999998093,12.8299999237
"2006-02-08 20:00:00",5.48999977112,0.0,115.0,14.5100002289,6.36999988556,14.3000001907,12.7899999619
"2006-02-08 21:00:00",4.48000001907,0.0,115.5,14.9499998093,6.44999980927,14.1999998093,12.7700004578
"2006-02-08 22:00:00",4.09000015259,0.0,116.099998474,15.1800003052,6.38999986649,13.8000001907,12.75
"2006-02-08 23:00:00",3.19000005722,0.0,115.599998474,15.4799995422,6.78999996185,13.8999996185,12.7299995422
"2006-02-09 00:00:00",3.44000005722,0.0,116.5,15.5,7.11000013351,13.6000003815,12.7100000381
"2006-02-09 01:00:00",3.40000009537,0.0,116.400001526,15.5,7.34000015259,14.0,12.6999998093
"2006-02-09 02:00:00",3.56999993324,0.0,116.400001526,15.4300003052,7.48000001907,13.6000003815,12.6800003052
"2006-02-09 03:00:00",3.27999997139,0.0,116.099998474,15.5200004578,7.5,13.6000003815,12.6700000763
"2006-02-09 04:00:00",2.77999997139,0.0,116.5,15.779999733,7.55000019073,13.8999996185,12.6099996567
"2006-02-09 05:00:00",3.50999999046,0.0,116.900001526,15.529999733,7.36999988556,14.1000003815,12.6499996185
"2006-02-09 06:00:00",3.5,0.0,116.699996948,15.5100002289,6.88999986649,14.1000003815,12.6400003433
"2006-02-09 07:00:00",3.01999998093,0.0,116.0,15.6099996567,6.55999994278,15.1999998093,12.6300001144
"2006-02-09 08:00:00",3.0,0.0,116.599998474,15.6899995804,6.51000022888,13.6999998093,12.6099996567
"2006-02-09 09:00:00",2.95000004768,0.0,116.0,15.6400003433,6.55000019073,13.5,12.6199998856
"2006-02-09 10:00:00",3.58999991417,0.0,117.0,15.5100002289,6.48999977112,13.1000003815,12.8299999237
"2006-02-09 11:00:00",5.42999982834,0.0,119.0,15.029999733,6.05000019073,13.3000001907,13.2100000381
"2006-02-09 12:00:00",6.51999998093,0.0,116.599998474,14.3299999237,5.82000017166,13.5,13.7399997711
"2006-02-09 13:00:00",7.90000009537,0.0,115.099998474,13.6599998474,5.38999986649,13.3000001907,14.5200004578
"2006-02-09 14:00:00",10.6400003433,0.0,112.400001526,12.5,5.03000020981,13.1999998093,14.5500001907
"2006-02-09 15:00:00",9.01000022888,0.0,114.699996948,13.2600002289,5.25,13.1000003815,14.5200004578